{"data":{"norad_id":68798,"intl_designator":"2026-088G","name":"MAGNARO-II","alt_names":[],"object_type":"PAYLOAD","status":"ACTIVE","operator":null,"country":"JPN","launch_date":"2026-04-23","launch_site_code":"RLLB","launch_vehicle":null,"mission":null,"orbit_class":"UNKNOWN","rcs_meters":null,"size_class":null,"mass_kg":null,"dimensions":null,"purposes":[],"wikipedia_slug":null,"has_3d_model":false,"image_url":null,"decayed_at":null,"tle_current":{"epoch":"2026-09-17T21:53:37.127328Z","epoch_age_seconds":283212,"freshness":"STALE","line1":"1 68798U 26088G   26260.91223527  .00002637  00000+0  16847-3 0  9995","line2":"2 68798  97.5200  48.3924 0020043 121.2776 239.0419 15.09344135 22285","mean_motion":15.09344135,"eccentricity":0.0020043,"inclination_deg":97.52,"raan_deg":48.3924,"arg_perigee_deg":121.2776,"mean_anomaly_deg":239.0419,"bstar":0.00016847,"rev_number":2228,"period_min":95.405677645542,"perigee_km":524.34045885475,"apogee_km":552.0652988932,"semimajor_km":6916.339878874,"source":"CELESTRAK","updated_at":"2026-09-20T09:00:24.464325Z"}}}